Regional Weather Roundup
Issued by NWS

Home | Current Version | Previous Version | Graphics & Text | Print | Product List | Glossary On
Versions: 1 2 3 4 5 6 7 8 9 10 11 12 13 14 15 16 17 18 19 20 21 22 23 24 25 26 27 28 29 30 31 32 33 34 35 36 37 38 39 40 41 42 43 44 45 46 47 48 49 50
545
ASUS43 KTOP 281208
RWRKS

WEATHER ROUNDUP FOR KANSAS
NATIONAL WEATHER SERVICE GOODLAND KS
700 AM CDT THU JUL 28 2016

NOTE:  "FAIR" INDICATES FEW OR NO CLOUDS BELOW 12,000 FEET WITH NO
SIGNIFICANT WEATHER AND/OR OBSTRUCTIONS TO VISIBILITY.

KSZ001>006-013>018-027>032-041>047-281300-
NORTHWEST KANSAS

CITY           SKY/WX    TMP DP  RH WIND       PRES   REMARKS
GOODLAND       MOCLDY    68  52  56 SE17      30.09F
6HR MIN TEMP:  60; 6HR MAX TEMP:  71; 6HR PCP:  0.13;

HAYS           MOCLDY    66  57  72 CALM      30.08R
HILL CITY      CLOUDY    68  67  96 S3        30.06F FOG
6HR MIN TEMP:  67; 6HR MAX TEMP:  74; 6HR PCP:  0.03;

RUSSELL        CLOUDY    69  65  86 W7        30.06R
6HR MIN TEMP:  69; 6HR MAX TEMP:  75;

$$

KSZ061>065-074>080-084>089-281300-
SOUTHWEST KANSAS

CITY           SKY/WX    TMP DP  RH WIND       PRES   REMARKS
DODGE CITY     CLOUDY    65  60  84 NE6       30.10R
6HR MIN TEMP:  65; 6HR MAX TEMP:  73; 6HR PCP:  0.02;

ELKHART          N/A     67  60  78 SW2         N/A
GARDEN CITY    CLOUDY    67  62  84 N23G31    30.17R
6HR MIN TEMP:  63; 6HR MAX TEMP:  77; 6HR PCP:  0.35;

GREAT BEND     CLOUDY    68  57  68 W8        30.09R
LIBERAL        CLOUDY    64  55  72 N5        30.10R
PRATT          LGT RAIN  67  57  70 NW20      30.07F
6HR MIN TEMP:  65; 6HR MAX TEMP:  74; 6HR PCP:  0.02;

$$

KSZ066>073-081>083-090>101-281300-
SOUTHEAST KANSAS

CITY           SKY/WX    TMP DP  RH WIND       PRES   REMARKS
CHANUTE        PTCLDY    76  74  93 W5        29.97R
6HR MIN TEMP:  74; 6HR MAX TEMP:  77;

COFFEYVILLE    PTCLDY    74  73  97 S3        29.96R
6HR MIN TEMP:  73; 6HR MAX TEMP:  78;

HUTCHINSON     CLOUDY    76  70  82 NW8       30.02R
6HR MIN TEMP:  71; 6HR MAX TEMP:  77;

MEDICINE LODGE   N/A     76  59  55 N13G23    30.00F
NEWTON         CLOUDY    75  72  90 W3        30.03R
PARSONS        PTCLDY    73  72  96 CALM      29.98R FOG
6HR MIN TEMP:  73; 6HR MAX TEMP:  76;

WICHITA INTL   CLOUDY    75  70  84 W6        30.01R
6HR MIN TEMP:  73; 6HR MAX TEMP:  78;

WICHITA JABRA  PTCLDY    76  71  85 W6        30.01R
6HR MIN TEMP:  74; 6HR MAX TEMP:  77;

WICHITA MCCONL PTCLDY    76  70  82 NW3       30.01R
WINFIELD       CLEAR     72  70  93 CALM      30.01R
6HR MIN TEMP:  71; 6HR MAX TEMP:  78;

$$

KSZ007>012-019>026-033>040-048>060-102>105-281300-
NORTHEAST KANSAS

CITY           SKY/WX    TMP DP  RH WIND       PRES   REMARKS
CONCORDIA      MOCLDY    70  65  84 N5        30.04R
6HR MIN TEMP:  68; 6HR MAX TEMP:  75;

EMPORIA        PTCLDY    73  71  93 CALM      29.99R
6HR MIN TEMP:  72; 6HR MAX TEMP:  76;

LAWRENCE       CLOUDY    70  69  97 NW5       29.98R
6HR MIN TEMP:  68; 6HR MAX TEMP:  71;

MANHATTAN      PTCLDY    71  69  93 CALM      30.00R
6HR MIN TEMP:  70; 6HR MAX TEMP:  75;

MARYSVILLE     CLEAR     66  66 100 CALM      30.03R FOG
OLATHE IND     PTCLDY    73  71  93 NW5       29.98R
6HR MIN TEMP:  73; 6HR MAX TEMP:  75;

OLATHE EXE     PTCLDY    73  70  90 NW6       29.98R
6HR MIN TEMP:  73; 6HR MAX TEMP:  76;

SALINA         MOCLDY    75  70  84 N10       30.03R
6HR MIN TEMP:  74; 6HR MAX TEMP:  82;

TOPEKA BILLARD PTCLDY    72  69  90 W3        29.98R
6HR MIN TEMP:  70; 6HR MAX TEMP:  76;

TOPEKA FORBES  PTCLDY    73  70  90 NW7       29.99R
6HR MIN TEMP:  72; 6HR MAX TEMP:  76;

$$




USA.gov is the U.S. government's official web portal to all federal, state and local government web resources and services.